Location: *
(53.4003°S, 165.3236°W)
Time: 01:11:09
(UTC+00:00)

Cosmos 2322 - Pass Details

Date: 11 December 2023
Orbit: 839 x 854 km, 71.0° (Epoch: 24 February)

Event Time Altitude Azimuth Distance (km) Brightness Sun altitude
Rises 11:59:28 0° 213° (SSW) 3,467 7.5 -12.3°
Reaches altitude 10° 12:01:58 10° 215° (SW) 2,525 6.7 -12.2°
Maximum altitude 12:07:45 71° 297° (WNW) 919 3.8 -12.0°
Drops below altitude 10° 12:13:27 10° 19° (NNE) 2,493 5.7 -11.7°
Enters shadow 12:13:57 - 20° (NNE) 2,680 5.8 -11.7°
